TimeCST,TemperatureF,Dew PointF,Humidity,Sea Level PressureIn,VisibilityMPH,Wind Direction,Wind SpeedMPH,Gust SpeedMPH,PrecipitationIn,Events,Conditions,WindDirDegrees,DateUTC
12:03 AM,69.8,66.2,88,30.04,9.0,SSW,13.8,-,N/A,,Mostly Cloudy,200,2013-02-11 06:03:00
12:56 AM,70.0,66.9,90,30.03,8.0,SSW,9.2,-,N/A,,Mostly Cloudy,200,2013-02-11 06:56:00
1:56 AM,69.1,66.9,93,30.01,6.0,SSW,10.4,-,N/A,,Mostly Cloudy,210,2013-02-11 07:56:00
2:56 AM,69.1,66.9,93,30.03,7.0,WSW,4.6,-,N/A,,Overcast,240,2013-02-11 08:56:00
3:12 AM,69.8,66.2,88,30.04,7.0,WSW,3.5,-,N/A,,Overcast,240,2013-02-11 09:12:00
3:24 AM,69.8,66.2,88,30.04,6.0,WSW,3.5,-,N/A,,Overcast,250,2013-02-11 09:24:00
3:47 AM,68.0,66.2,94,30.03,6.0,SW,4.6,-,N/A,,Scattered Clouds,230,2013-02-11 09:47:00
3:56 AM,68.0,66.0,93,30.02,5.0,SSW,4.6,-,N/A,,Scattered Clouds,210,2013-02-11 09:56:00
4:33 AM,66.2,64.4,94,30.01,4.0,South,3.5,-,N/A,,Mostly Cloudy,190,2013-02-11 10:33:00
4:38 AM,66.2,64.4,94,30.01,2.5,SSE,4.6,-,N/A,,Mostly Cloudy,160,2013-02-11 10:38:00
4:43 AM,66.2,64.4,94,30.01,0.8,SSE,4.6,-,N/A,,Mostly Cloudy,150,2013-02-11 10:43:00
4:51 AM,66.2,64.4,94,30.01,0.5,SSE,4.6,-,N/A,Fog,Fog,150,2013-02-11 10:51:00
4:56 AM,66.0,64.9,96,30.00,0.5,SSE,4.6,-,N/A,Fog,Fog,150,2013-02-11 10:56:00
5:10 AM,66.2,66.2,100,30.02,0.2,Calm,Calm,-,N/A,Fog,Fog,0,2013-02-11 11:10:00
5:30 AM,66.2,66.2,100,30.03,0.5,South,3.5,-,N/A,Fog,Fog,180,2013-02-11 11:30:00
5:56 AM,66.9,66.0,97,30.03,0.2,Calm,Calm,-,N/A,Fog,Fog,0,2013-02-11 11:56:00
6:56 AM,66.9,66.0,97,30.06,0.2,Calm,Calm,-,N/A,Fog,Fog,0,2013-02-11 12:56:00
7:23 AM,68.0,66.2,94,30.07,0.5,Calm,Calm,-,N/A,Fog,Fog,0,2013-02-11 13:23:00
7:41 AM,68.0,66.2,94,30.08,1.0,West,3.5,-,N/A,,Overcast,270,2013-02-11 13:41:00
7:56 AM,69.1,66.9,93,30.07,1.0,SW,4.6,-,N/A,,Overcast,230,2013-02-11 13:56:00
8:32 AM,68.0,66.2,94,30.09,2.0,Calm,Calm,-,0.01,Rain,Light Rain,0,2013-02-11 14:32:00
8:51 AM,64.4,62.6,94,30.11,3.0,NNW,11.5,19.6,0.01,,Overcast,340,2013-02-11 14:51:00
8:56 AM,64.0,62.1,93,30.11,3.0,NNW,13.8,19.6,0.01,,Overcast,340,2013-02-11 14:56:00
9:23 AM,62.6,59.0,88,30.13,3.0,North,13.8,-,0.00,,Overcast,350,2013-02-11 15:23:00
9:56 AM,63.0,57.9,84,30.12,3.0,North,12.7,-,0.00,,Haze,360,2013-02-11 15:56:00
10:05 AM,62.6,57.2,82,30.12,7.0,North,15.0,23.0,N/A,,Mostly Cloudy,350,2013-02-11 16:05:00
10:56 AM,63.0,55.9,78,30.13,7.0,North,16.1,19.6,0.00,Rain,Light Rain,350,2013-02-11 16:56:00
11:05 AM,62.6,55.4,77,30.13,7.0,North,15.0,-,0.00,Rain,Light Rain,10,2013-02-11 17:05:00
11:56 AM,62.1,55.9,80,30.10,7.0,North,13.8,-,0.01,,Overcast,10,2013-02-11 17:56:00
12:56 PM,60.1,55.9,86,30.11,4.0,West,4.6,-,0.01,Rain-Thunderstorm,Light Thunderstorms and Rain,280,2013-02-11 18:56:00
1:08 PM,60.8,55.4,82,30.12,5.0,NNE,11.5,-,0.01,Rain,Light Rain,20,2013-02-11 19:08:00
1:29 PM,59.0,55.4,88,30.10,2.5,NNE,9.2,-,0.02,Rain,Rain,20,2013-02-11 19:29:00
1:38 PM,59.0,55.4,88,30.10,3.0,NNE,8.1,-,0.03,Rain,Light Rain,20,2013-02-11 19:38:00
1:56 PM,57.9,55.0,90,30.09,6.0,NE,10.4,-,0.04,,Overcast,40,2013-02-11 19:56:00
2:41 PM,57.2,55.4,94,30.09,6.0,NNE,13.8,-,0.00,,Overcast,20,2013-02-11 20:41:00
2:56 PM,57.9,55.0,90,30.08,6.0,NNE,16.1,20.7,0.00,,Overcast,20,2013-02-11 20:56:00
3:10 PM,57.2,55.4,94,30.08,3.0,NE,15.0,21.9,0.07,Rain,Light Rain,40,2013-02-11 21:10:00
3:56 PM,57.9,55.0,90,30.06,6.0,NE,12.7,-,0.13,Rain,Light Rain,50,2013-02-11 21:56:00
4:56 PM,57.9,55.0,90,30.05,6.0,ENE,11.5,-,0.00,,Overcast,60,2013-02-11 22:56:00
5:56 PM,57.9,54.0,87,30.07,7.0,ENE,13.8,19.6,0.01,Rain,Light Rain,60,2013-02-11 23:56:00
6:09 PM,57.2,53.6,88,30.07,10.0,ENE,11.5,21.9,0.00,,Overcast,60,2013-02-12 00:09:00
6:51 PM,57.2,53.6,88,30.09,10.0,North,8.1,18.4,0.00,,Overcast,10,2013-02-12 00:51:00
6:56 PM,57.0,54.0,89,30.10,10.0,NNW,5.8,-,0.00,,Overcast,340,2013-02-12 00:56:00
7:33 PM,57.2,53.6,88,30.08,8.0,ENE,10.4,-,0.00,,Overcast,60,2013-02-12 01:33:00
7:56 PM,57.0,54.0,89,30.07,8.0,East,12.7,-,0.00,,Overcast,80,2013-02-12 01:56:00
8:10 PM,57.2,53.6,88,30.08,8.0,ENE,8.1,-,N/A,,Overcast,70,2013-02-12 02:10:00
8:56 PM,57.0,54.0,89,30.09,8.0,NNE,6.9,-,0.02,Rain,Rain,20,2013-02-12 02:56:00
9:56 PM,55.9,54.0,93,30.06,8.0,NE,11.5,-,0.01,,Overcast,50,2013-02-12 03:56:00
10:23 PM,55.4,53.6,94,30.07,8.0,NE,8.1,-,N/A,,Overcast,50,2013-02-12 04:23:00
10:51 PM,55.4,53.6,94,30.07,7.0,NNE,9.2,-,0.00,Rain,Light Rain,20,2013-02-12 04:51:00
10:56 PM,55.9,54.0,93,30.07,7.0,North,6.9,-,0.01,Rain,Light Rain,10,2013-02-12 04:56:00
11:06 PM,55.4,53.6,94,30.08,3.0,North,9.2,-,0.03,Rain,Heavy Rain,10,2013-02-12 05:06:00
11:13 PM,55.4,53.6,94,30.08,2.5,North,10.4,-,0.07,Rain,Heavy Rain,10,2013-02-12 05:13:00
11:21 PM,55.4,53.6,94,30.08,4.0,North,10.4,-,0.11,Rain,Rain,350,2013-02-12 05:21:00
11:33 PM,55.4,53.6,94,30.07,6.0,NNE,11.5,-,0.12,Rain,Light Rain,20,2013-02-12 05:33:00
11:56 PM,55.9,54.0,93,30.06,10.0,NNE,10.4,-,0.12,,Overcast,30,2013-02-12 05:56:00